User: anonymous   Login
Location: ?????
(54.9266°N, 38.5527°E)
Time: 14:56:54
(UTC+00:00)
Language:

Okean 1 - Orbit

View from above orbital plane
View from above orbital plane
View from above satellite
View from above satellite

Ground track
Ground track

The orbit data is extracted from the following two-line orbital elements,

1 19274U 88056A   24173.95314174  .00005801  00000-0  29758-3 0  9999
2 19274  82.4747 171.3139 0016764 200.9406 159.1143 15.16230162939751
Epoch (UTC): 21 June 2024 22:52:31
Eccentricity: 0.0016764
inclination: 82.4747°
perigee height: 505 km
apogee height: 529 km
right ascension of ascending node: 171.3139°
argument of perigee: 200.9406°
revolutions per day: 15.16230162
mean anomaly at epoch: 159.1143°
orbit number at epoch: 93975

The dashed part of the orbit path shows where the satellite is in the earth's shadow,  

DLR